[Iaude] MPEC F69: 2022 FR1 [a=1.45,e=0.37,i=7.2,H=28.2]

mpec at marsden.cfa.harvard.edu mpec at marsden.cfa.harvard.edu
Sat Mar 26 07:59:37 EDT 2022


M.P.E.C. 2022-F69                                Issued 2022 March 26, 11:57 UT

     The Minor Planet Electronic Circulars contain information on unusual
         minor planets and routine data on comets.  They are published
    on behalf of Division F of the International Astronomical Union by the
          Minor Planet Center, Smithsonian Astrophysical Observatory,
                          Cambridge, MA 02138, U.S.A.

             Prepared using the Tamkin Foundation Computer Network

                              MPC at CFA.HARVARD.EDU
            URL https://www.minorplanetcenter.net/    ISSN 1523-6714

                                    2022 FR1                                    


Observations:
     K22F01R  C2022 03 24.28199 12 07 06.43 -09 51 18.3          21.4 GVEF069G96
     K22F01R  C2022 03 24.28757 12 07 11.14 -09 50 43.8          21.7 GVEF069G96
     K22F01R  C2022 03 24.29314 12 07 15.63 -09 50 11.6          21.2 GVEF069G96
     K22F01R* C2022 03 25.40349412 28 12.543-07 29 30.38         20.80wUEF069F52
     K22F01R  C2022 03 25.42428612 28 38.218-07 26 16.49         20.53wUEF069F52
     K22F01R  C2022 03 25.43460312 28 51.083-07 24 39.03         20.90wUEF069F52
     K22F01R  C2022 03 25.55278812 31 22.353-07 05 22.79         20.57GVEF069F52
     K22F01R  C2022 03 25.55341812 31 23.190-07 05 16.48         20.49GVEF069F52
     K22F01R KC2022 03 25.89944512 40 43.61 -06 05 28.4          20.3 GXEF069I93
     K22F01R KC2022 03 25.90790312 40 56.89 -06 03 52.2                XEF069I93
     K22F01R KC2022 03 25.91629612 41 10.03 -06 02 16.0          20.5 GXEF069I93
     K22F01R pC2022 03 25.93825112 41 40.32 -05 58 07.3          20.3 GVEF069L01
     K22F01R pC2022 03 25.94148012 41 45.39 -05 57 29.2          20.1 GVEF069L01
     K22F01R pC2022 03 25.94462412 41 50.29 -05 56 52.3          20.8 GVEF069L01
     K22F01R 1C2022 03 25.97329812 42 34.90 -05 51 32.6                VEF069246
     K22F01R 1C2022 03 25.97363912 42 35.43 -05 51 29.3                VEF069246
     K22F01R HC2022 03 26.01942112 43 50.97 -05 42 03.0                VEF069204
     K22F01R 1C2022 03 26.03331 12 44 13.06 -05 39 34.1          20.6 VXEF069033
     K22F01R 1C2022 03 26.03394 12 44 14.07 -05 39 25.9          20.6 VXEF069033
     K22F01R 1C2022 03 26.03457 12 44 15.11 -05 39 18.2          20.3 VXEF069033
     K22F01R 1C2022 03 26.03524 12 44 16.21 -05 39 10.4          20.3 VXEF069033
     K22F01R KC2022 03 26.03954212 44 23.68 -05 37 56.4          20.5 GVEF069204
     K22F01R KC2022 03 26.21781 12 50 04.24 -04 59 05.4          20.2 GXEF069858
     K22F01R KC2022 03 26.22345 12 50 14.20 -04 57 51.2          20.1 GXEF069858
     K22F01R KC2022 03 26.22905 12 50 24.09 -04 56 37.4          20.0 GXEF069858
     K22F01R KC2022 03 26.24111812 50 38.51 -04 54 23.0          20.3 VuEF069H21
     K22F01R KC2022 03 26.24270012 50 41.30 -04 54 01.9          20.3 VuEF069H21
     K22F01R KC2022 03 26.24443912 50 44.32 -04 53 38.7          20.4 VuEF069H21
     K22F01R  C2022 03 26.37616312 54 50.05 -04 22 44.4          19.9 GVEF069H01
     K22F01R  C2022 03 26.37954712 54 56.34 -04 21 55.9          20.0 GVEF069H01
     K22F01R  C2022 03 26.38990112 55 15.72 -04 19 26.9          19.9 GVEF069H01
     K22F01R  C2022 03 26.39670212 55 28.50 -04 17 48.7          20.1 GVEF069H01

Observer details:
033 Karl Schwarzschild Observatory, Tautenburg.  Observers S. Melnikov, C.
    Hoegner, U. Laux, F. Ludwig, B. Stecklum.  Measurer B. Stecklum.  1.34-m
    f/3 Schmidt + CCD.
204 Schiaparelli Observatory.  Observer L. Buzzi.  0.84-m f/3.5 reflector +
    CCD.
246 Klet Observatory-KLENOT.  Observers M. Tichy, J. Ticha, M. Honkova.
    Measurer M. Tichy.  1.06-m f/2.7 reflector + 2048x2048 CCD.
858 Tebbutt Observatory, Edgewood.  Observer F. B. Zoltowski.  0.51-m Schmidt-
    Cassegrain + CCD.
F52 Pan-STARRS 2, Haleakala.  Observers J. Bulger, T. Lowe, A. Schultz, I.
    Smith, K. Chambers, T. Dukes.  Measurers K. Chambers, S. Chastel, T. de
    Boer, J. Fairlamb, H. Gao, M. Huber, C.-C. Lin, E. Magnier, Y.
    Ramanjooloo, R. Wainscoat, R. Weryk.  1.8-m Ritchey-Chretien + CCD.
G96 Mt. Lemmon Survey.  Observers A. Serrano, G. J. Leonard.  Measurers E. J.
    Christensen, B. Gray, D. Rankin, F. C. Shelly.  1.5-m reflector + 10K CCD.
H01 Magdalena Ridge Observatory, Socorro.  Observers W. H. Ryan, E. V. Ryan.
    Measurer W. H. Ryan.  2.4-m f/8.9 Ritchey-Chretien + CCD.
H21 Astronomical Research Observatory, Westfield.  Observer R. Holmes.
    Measurers T. Linder, R. Holmes, L. Horn.  0.76-m f/3.0 astrograph + CCD.
I93 St Pardon de Conques.  Observer F. Losse.  0.40-m f/3.7 reflector + CCD.
L01 Visnjan Observatory, Tican.  Observer K. Korlevic.  1.0-m f/2.9 reflector
    + CCD.

Orbital elements:
2022 FR1                                                 Earth MOID = 0.0099 AU
Epoch 2022 Jan. 21.0 TT = JDT 2459600.5                 Veres                   
M 299.70911              (2000.0)            P               Q                  
n   0.56628332     Peri.   51.75464     -0.54397111     +0.83902270             
a   1.4469278      Node   185.33048     -0.80378255     -0.52501753             
e   0.3679337      Incl.    7.22055     -0.24089221     -0.14281983             
P   1.74           H   28.24          G   0.15           U   7                  
Residuals in seconds of arc
220324 G96  0.3+  0.1+    220325 L01  0.5-  0.5+    220326 858  0.2+  0.0
220324 G96 (1.7+  1.0+)   220325 L01  0.4-  0.8+    220326 858  0.1+  0.2-
220324 G96  0.1-  0.4-    220325 L01  0.9-  1.0+    220326 858  0.0   0.4-
220325 F52  0.0   0.1+    220325 246 (6.3-  2.9-)   220326 H21  0.8+  0.1+
220325 F52  0.6-  0.1-    220325 246 (6.5-  3.7-)   220326 H21  0.7+  0.0
220325 F52  0.2+  0.1+    220326 204  0.2+  0.1-    220326 H21  0.0   0.1-
220325 F52  0.1-  0.1+    220326 033  0.3+  0.5-    220326 H01  0.0   0.2-
220325 F52  0.1-  0.1+    220326 033  0.0   0.0     220326 H01  0.2-  0.2-
220325 I93  0.9+  0.0     220326 033  0.1+  0.0     220326 H01  0.0   0.1-
220325 I93  1.0+  0.3-    220326 033  0.1+  0.4-    220326 H01  0.1-  0.2-
220325 I93  0.3+  0.4-    220326 204 (0.7+  0.4+)

Ephemeris:
2022 FR1                 a,e,i = 1.45, 0.37, 7                   q = 0.9146
Date    TT    R. A. (2000) Decl.     Delta      r    Elong.  Phase     V
2022 02 24    10 54 43.3 -14 56 08   0.2006  1.1738   154.5    21.3    26.1
...
2022 03 11    11 04 34.9 -15 36 29   0.1052  1.0926   159.9    18.2    24.5
...
2022 03 19    11 23 36.6 -14 11 14   0.05927 1.0523   163.4    15.7    23.1
...
2022 03 25    12 19 33.8 -08 24 59   0.02723 1.0241   173.1     6.7    21.0
2022 03 26    12 43 18.7 -05 41 01   0.02243 1.0196   172.8     7.1    20.6
2022 03 27    13 18 44.5 -01 26 42   0.01808 1.0152   165.8    14.0    20.4
...
2022 04 02    20 21 33.3 +25 25 13   0.02355 0.9900    66.0   112.8    24.4
...
2022 04 10    21 53 31.8 +21 35 29   0.06525 0.9610    50.0   127.0    27.7
...
2022 04 25    22 29 19.4 +19 32 13   0.1484  0.9239    52.9   119.8    28.8

M. P. C. Staff               (C) Copyright 2022 MPC           M.P.E.C. 2022-F69




More information about the Iaude mailing list